This demonstration page uses our WeatherBlox Daily Observations layout. Learn more.

Left ArrowRight Arrow

38.20091, -84.87328

Hourly Observations for December 3, 2022

Temp ( °F °C ) Dew Point ( °F °C ) Humidity (%) Winds ( mph kmh ) Pressure ( in mb ) Visibility ( mi km ) Precip ( " mm )
12:53 am 00:53 Cloudy with Light Rain 56 13.3 47 8.3 72 72 SSW 18 30 30.01 1016 10 16 0.02 0.51
1:53 am 01:53 Cloudy with Light Rain 55 12.8 50 10 83 83 SSW 16 26 30.02 1017 10 16 0.03 0.76
2:29 am 02:29 Cloudy 56 13.3 51 10.6 84 84 SSW 21 33 30.02 1017 10 16 0.01 0.25
2:53 am 02:53 Cloudy 56 13.3 51 10.6 84 84 S 20 31 30.01 1016 10 16 0.01 0.25
3:53 am 03:53 Cloudy with Light Rain 55 12.8 53 11.7 93 93 SW 15 24 30.02 1017 6 10 0.05 1.27
4:04 am 04:04 Cloudy with Light Rain 56 13.3 53 11.7 90 90 SSW 18 30 30.03 1017 9 14 0.01 0.13
4:53 am 04:53 Cloudy with Light Rain 56 13.3 54 12.2 93 93 SW 14 22 30.04 1017 4 6 0.05 1.27
5:03 am 05:03 Cloudy with Light Rain 56 13.3 54 12.2 93 93 SW 12 19 30.05 1018 6 10 0.01 0.25
5:53 am 05:53 Cloudy 57 13.9 55 12.8 93 93 WSW 14 22 30.06 1018 10 16 0.02 0.51
6:19 am 06:19 Cloudy 58 14.4 55 12.8 90 90 WSW 12 19 30.07 1018 10 16 0.00 0.00
6:32 am 06:32 Cloudy 58 14.4 56 13.3 93 93 WSW 10 17 30.08 1019 10 16 0.00 0.00
6:53 am 06:53 Cloudy 58 14.4 56 13.3 93 93 WSW 9 15 30.08 1019 10 16 0.00 0.00
7:16 am 07:16 Cloudy 58 14.4 55 12.8 90 90 WSW 9 15 30.11 1020 10 16 0.00 0.00
7:30 am 07:30 Cloudy 58 14.4 55 12.8 90 90 WSW 8 13 30.12 1020 10 16 0.00 0.00
7:53 am 07:53 Cloudy 58 14.4 55 12.8 90 90 WSW 12 19 30.12 1020 10 16 0.00 0.00
8:53 am 08:53 Cloudy 58 14.4 52 11.1 81 81 W 5 7 30.16 1021 10 16 0.00 0.00
9:40 am 09:40 Cloudy 51 10.6 43 6.1 74 74 WNW 17 28 30.23 1024 10 16 0.00 0.00
9:48 am 09:48 Cloudy 52 11 43 6 71 71 WNW 12 19 30.23 1024 10 16 0.00 0.00
9:53 am 09:53 Cloudy 51 10.6 41 5 68 68 WNW 12 19 30.22 1023 10 16 0.00 0.00
10:21 am 10:21 Cloudy 50 10 40 4.4 68 68 WNW 8 13 30.25 1024 10 16 0.00 0.00
10:53 am 10:53 Cloudy 50 10 40 4.4 68 68 WNW 9 15 30.27 1025 10 16 0.00 0.00
11:53 am 11:53 Sunny 52 11.1 33 0.6 48 48 NW 13 20 30.28 1025 10 16 0.00 0.00
12:53 pm 12:53 Sunny 52 11.1 30 -1.1 43 43 WNW 13 20 30.29 1026 10 16 0.00 0.00
1:53 pm 13:53 Sunny 51 10.6 31 -0.6 46 46 W 9 15 30.32 1027 10 16 0.00 0.00
2:53 pm 14:53 Sunny 50 10 27 -2.8 40 40 NW 10 17 30.33 1027 10 16 0.00 0.00
3:53 pm 15:53 Sunny 49 9.4 26 -3.3 41 41 NW 9 15 30.35 1028 10 16 0.00 0.00
4:53 pm 16:53 Sunny 46 7.8 23 -5 40 40 WNW 6 9 30.38 1029 10 16 0.00 0.00
5:53 pm 17:53 Clear 42 5.6 25 -3.9 50 50 WNW 3 6 30.39 1029 10 16 0.00 0.00
6:53 pm 18:53 Clear 40 4.4 25 -3.9 55 55 WNW 5 7 30.41 1030 10 16 0.00 0.00
7:53 pm 19:53 Clear 37 2.8 25 -3.9 61 61 NW 5 7 30.42 1030 10 16 0.00 0.00
8:53 pm 20:53 Clear 34 1.1 24 -4.4 67 67 Calm 30.43 1031 10 16 0.00 0.00
9:53 pm 21:53 Clear 30 -1.1 25 -3.9 81 81 Calm 30.43 1031 10 16 0.00 0.00
10:53 pm 22:53 Clear 29 -1.7 24 -4.4 82 82 Calm 30.42 1030 10 16 0.00 0.00
11:53 pm 23:53 Clear 29 -1.7 24 -4.4 82 82 Calm 30.42 1030 10 16 0.00 0.00

Powered by AerisWeather